weather.gov     
National Weather Service

Terminal Aerodrome Forecast
NWS Homepage
This page is being discontinued on March 12, 2014.
The same data is available at this site. Please update your bookmarks.
Thank you, and we apologize for the inconvenience.
Please send an email to SR-SRH.Webmaster@noaa.gov with any concerns.


Current Version
Previous Version:    01  02  03  04  05  06  07  08  09  10  11  12  13  14  15  16  17  18  19  20  21  22  23  24  25  26  27  28  29  30  
   31  32  33  34  35  
[Printable]
543
FTAK31 PAFA 262209 AAB
TAFAFA
TAF AMD
PAFA 262209Z 2622/2724 04003KT P6SM -SHSN BKN005 BKN030
      TEMPO 2622/2624 2SM -SHSN BR BKN003
     FM270300 VRB03KT P6SM SCT005 BKN030
     FM270600 VRB03KT P6SM SCT030
     FM271200 VRB03KT P6SM FEW030 FEW200=




543
FTAK31 PAFA 262209 AAB
TAFAFA
TAF AMD
PAFA 262209Z 2622/2724 04003KT P6SM -SHSN BKN005 BKN030
      TEMPO 2622/2624 2SM -SHSN BR BKN003
     FM270300 VRB03KT P6SM SCT005 BKN030
     FM270600 VRB03KT P6SM SCT030
     FM271200 VRB03KT P6SM FEW030 FEW200=


U.S. Dept. of Commerce
NOAA National Weather Service
1325 East West Highway
Silver Spring, MD 20910
E-mail: w-nws.webmaster@noaa.gov
Page last modified: May 16, 2007
NATIONAL WEATHER SERVICE: for Safety, for Work, for Fun - FOR LIFE